Date String (YYYY-MM-DD hh:mm:ss) UTC,Instrument flags,absolute air pressure of the measurement (hPa),sample flow rate (lpm),inlet stack bypass flow (lpm),air temperature of the measurement (°C),ambient temperature measured by the external sensor (°C),aerosol sample conditioner tube jacket temperature (°C),OPC LED temperature (°C),internal box temperature (°C),relative humidity of the measurement (%),span deviation,mass concentration of particles derived from Lorenz-Mie calculation of OPC scattering (μg/m³),mass concentration of particles derived from Lorenz-Mie calculation of OPC scattering (μg/m³),mass concentration of particles derived from Lorenz-Mie calculation of OPC scattering (μg/m³)
DateTimeUTC,F1_M11,P_M11,Q1_M11,Q2_M11,T1_M11,T2_M11,T3_M11,T4_M11,T5_M11,U1_M11,ZSPAN_M11,X2_M11,X0_M11,X1_M11
2023-09-19 23:00:00,SystemResetWarning,0828.4,4.99,000.00,027.7,025.2,000.0,036.1,029.2,22.7,0000.0,0002.23,0003.84,0001.69
2023-09-19 23:01:00,SystemResetWarning,0828.4,5.00,000.00,027.7,025.5,000.0,036.1,029.3,22.6,0000.0,0002.28,0003.89,0001.71
2023-09-19 23:02:00,SystemResetWarning,0828.4,5.00,000.00,027.7,025.8,000.0,036.1,029.3,22.6,0000.0,0002.29,0004.01,0001.72
2023-09-19 23:03:00,SystemResetWarning,0828.4,5.00,000.00,027.8,026.1,000.0,036.1,029.4,22.7,0000.0,0002.34,0004.84,0001.74
2023-09-19 23:04:00,SystemResetWarning,0828.4,5.00,000.00,027.8,026.3,000.0,036.2,029.5,22.9,0000.0,0002.38,0005.16,0001.75
2023-09-19 23:05:00,SystemResetWarning,0828.5,5.00,000.00,027.8,026.4,000.0,036.2,029.5,23.2,0000.0,0002.39,0005.15,0001.76
2023-09-19 23:06:00,SystemResetWarning,0828.5,4.99,000.00,027.9,026.6,000.0,036.2,029.6,23.2,0000.0,0002.42,0005.48,0001.78
2023-09-19 23:07:00,SystemResetWarning,0828.5,4.98,000.00,027.9,026.7,000.0,036.2,029.7,23.3,0000.0,0002.42,0005.53,0001.79
2023-09-19 23:08:00,SystemResetWarning,0828.6,5.01,000.00,027.9,026.8,000.0,036.2,029.7,22.8,0000.0,0002.40,0005.86,0001.79
2023-09-19 23:09:00,SystemResetWarning,0828.6,5.01,000.00,028.0,026.9,000.0,036.2,029.7,22.7,0000.0,0002.42,0006.04,0001.78
2023-09-19 23:10:00,SystemResetWarning,0828.6,5.01,000.00,028.0,027.0,000.0,036.3,029.8,22.7,0000.0,0002.40,0006.02,0001.79
2023-09-19 23:11:00,SystemResetWarning,0828.6,4.98,000.00,028.1,026.4,000.0,036.3,029.6,22.8,0000.0,0002.39,0005.97,0001.78
2023-09-19 23:12:00,SystemResetWarning,0828.6,5.00,000.00,028.0,024.9,000.0,036.2,029.3,22.7,0000.0,0002.39,0005.93,0001.77
2023-09-19 23:13:00,SystemResetWarning,0828.6,5.01,000.00,027.9,024.6,000.0,036.2,029.3,22.7,0000.0,0002.41,0005.94,0001.78
2023-09-19 23:14:00,SystemResetWarning,0828.6,5.01,000.00,027.8,024.8,000.0,036.2,029.2,22.6,0000.0,0002.42,0005.23,0001.78
2023-09-19 23:15:00,SystemResetWarning,0828.6,5.00,000.00,027.8,025.1,000.0,036.2,029.2,22.7,0000.0,0002.40,0005.02,0001.78
2023-09-19 23:16:00,SystemResetWarning,0828.6,5.00,000.00,027.8,025.4,000.0,036.2,029.3,22.7,0000.0,0002.41,0005.08,0001.79
2023-09-19 23:17:00,SystemResetWarning,0828.6,5.00,000.00,027.8,025.7,000.0,036.2,029.4,22.7,0000.0,0002.39,0005.97,0001.80
2023-09-19 23:18:00,SystemResetWarning,0828.7,5.00,000.00,027.8,026.0,000.0,036.2,029.4,22.7,0000.0,0002.40,0006.35,0001.79
2023-09-19 23:19:00,SystemResetWarning,0828.6,5.00,000.00,027.8,026.2,000.0,036.2,029.5,22.6,0000.0,0002.40,0006.58,0001.79
2023-09-19 23:20:00,SystemResetWarning,0828.7,5.00,000.00,027.9,026.4,000.0,036.2,029.5,22.5,0000.0,0002.39,0006.92,0001.80
2023-09-19 23:21:00,SystemResetWarning,0828.7,5.01,000.00,027.9,026.6,000.0,036.2,029.6,22.1,0000.0,0002.44,0007.26,0001.81
2023-09-19 23:22:00,SystemResetWarning,0828.7,5.00,000.00,027.9,026.7,000.0,036.3,029.6,22.3,0000.0,0002.45,0007.31,0001.80
2023-09-19 23:23:00,SystemResetWarning,0828.7,4.99,000.00,028.0,026.8,000.0,036.3,029.7,22.6,0000.0,0002.48,0007.57,0001.80
2023-09-19 23:24:00,SystemResetWarning,0828.7,4.99,000.00,028.0,026.9,000.0,036.3,029.7,22.4,0000.0,0002.46,0007.61,0001.79
2023-09-19 23:25:00,SystemResetWarning,0828.7,5.00,000.00,028.1,026.9,000.0,036.3,029.8,22.3,0000.0,0002.41,0007.59,0001.79
2023-09-19 23:26:00,SystemResetWarning,0828.7,5.00,000.00,028.0,025.4,000.0,036.3,029.3,22.4,0000.0,0002.42,0007.61,0001.79
2023-09-19 23:27:00,SystemResetWarning,0828.7,5.00,000.00,027.8,024.0,000.0,036.2,028.8,22.0,0000.0,0002.45,0007.57,0001.79
2023-09-19 23:28:00,SystemResetWarning,0828.7,5.00,000.00,027.7,023.8,000.0,036.1,028.9,21.9,0000.0,0002.46,0006.74,0001.77
2023-09-19 23:29:00,SystemResetWarning,0828.7,5.01,000.00,027.6,024.1,000.0,036.1,028.9,22.4,0000.0,0002.45,0006.02,0001.77
2023-09-19 23:30:00,SystemResetWarning,0828.7,5.00,000.00,027.6,024.4,000.0,036.1,028.9,21.8,0000.0,0002.47,0005.76,0001.77
2023-09-19 23:31:00,SystemResetWarning,0828.8,5.00,000.00,027.6,024.8,000.0,036.1,029.0,22.3,0000.0,0002.49,0005.15,0001.77
2023-09-19 23:32:00,SystemResetWarning,0828.8,5.00,000.00,027.6,025.2,000.0,036.1,029.1,21.9,0000.0,0002.46,0004.67,0001.76
2023-09-19 23:33:00,SystemResetWarning,0828.8,5.00,000.00,027.6,025.5,000.0,036.1,029.1,21.7,0000.0,0002.42,0004.63,0001.75
2023-09-19 23:34:00,SystemResetWarning,0828.8,4.99,000.00,027.6,025.8,000.0,036.1,029.2,22.1,0000.0,0002.41,0004.57,0001.74
2023-09-19 23:35:00,SystemResetWarning,0828.9,4.99,000.00,027.7,026.0,000.0,036.1,029.3,22.2,0000.0,0002.42,0004.28,0001.75
2023-09-19 23:36:00,SystemResetWarning,0829.0,5.00,000.00,027.7,026.3,000.0,036.1,029.4,21.9,0000.0,0002.40,0004.17,0001.75
2023-09-19 23:37:00,SystemResetWarning,0828.9,5.00,000.00,027.7,026.4,000.0,036.1,029.4,22.2,0000.0,0002.37,0004.86,0001.73
2023-09-19 23:38:00,SystemResetWarning,0829.0,5.00,000.00,027.8,026.6,000.0,036.1,029.5,21.8,0000.0,0002.36,0004.94,0001.72
2023-09-19 23:39:00,SystemResetWarning,0828.9,5.00,000.00,027.8,026.7,000.0,036.1,029.6,21.8,0000.0,0002.34,0004.91,0001.73
2023-09-19 23:40:00,SystemResetWarning,0829.0,5.00,000.00,027.9,026.8,000.0,036.1,029.6,22.1,0000.0,0002.34,0004.94,0001.74
2023-09-19 23:41:00,SystemResetWarning,0829.0,5.01,000.00,027.9,026.9,000.0,036.2,029.6,22.1,0000.0,0002.30,0004.77,0001.75
2023-09-19 23:42:00,SystemResetWarning,0829.1,5.00,000.00,027.9,027.0,000.0,036.2,029.7,22.3,0000.0,0002.28,0004.62,0001.76
2023-09-19 23:43:00,SystemResetWarning,0829.1,5.00,000.00,028.0,027.0,000.0,036.2,029.7,22.7,0000.0,0002.27,0004.60,0001.76
2023-09-19 23:44:00,SystemResetWarning,0829.1,4.99,000.00,028.0,026.6,000.0,036.2,029.6,22.4,0000.0,0002.27,0004.66,0001.77
2023-09-19 23:45:00,SystemResetWarning,0829.1,4.99,000.00,027.9,025.0,000.0,036.2,029.2,22.4,0000.0,0002.31,0004.41,0001.79
2023-09-19 23:46:00,SystemResetWarning,0829.1,5.02,000.00,027.8,024.6,000.0,036.2,029.2,22.9,0000.0,0002.29,0004.28,0001.81
2023-09-19 23:47:00,SystemResetWarning,0829.1,5.00,000.00,027.8,024.8,000.0,036.2,029.1,23.3,0000.0,0002.31,0004.33,0001.82
2023-09-19 23:48:00,SystemResetWarning,0829.2,5.00,000.00,027.7,025.0,000.0,036.2,029.2,23.7,0000.0,0002.35,0003.90,0001.83
2023-09-19 23:49:00,SystemResetWarning,0829.3,5.00,000.00,027.7,025.4,000.0,036.1,029.2,23.9,0000.0,0002.40,0003.58,0001.85
2023-09-19 23:50:00,SystemResetWarning,0829.3,4.99,000.00,027.8,025.7,000.0,036.1,029.3,24.1,0000.0,0002.39,0003.56,0001.86
2023-09-19 23:51:00,SystemResetWarning,0829.3,5.00,000.00,027.8,025.9,000.0,036.2,029.4,24.2,0000.0,0002.41,0005.19,0001.84
2023-09-19 23:52:00,SystemResetWarning,0829.2,5.01,000.00,027.8,026.2,000.0,036.2,029.4,23.2,0000.0,0002.44,0005.22,0001.86
2023-09-19 23:53:00,SystemResetWarning,0829.2,5.01,000.00,027.8,026.4,000.0,036.2,029.5,22.8,0000.0,0002.44,0005.19,0001.86
2023-09-19 23:54:00,SystemResetWarning,0829.3,4.99,000.00,027.9,026.6,000.0,036.2,029.5,22.5,0000.0,0002.41,0005.09,0001.85
2023-09-19 23:55:00,SystemResetWarning,0829.3,4.98,000.00,027.9,026.7,000.0,036.2,029.6,22.1,0000.0,0002.41,0005.02,0001.85
2023-09-19 23:56:00,SystemResetWarning,0829.3,5.02,000.00,027.9,026.8,000.0,036.2,029.7,21.7,0000.0,0002.40,0005.66,0001.85
2023-09-19 23:57:00,SystemResetWarning,0829.4,5.01,000.00,028.0,026.9,000.0,036.2,029.7,21.5,0000.0,0002.39,0007.24,0001.84
2023-09-19 23:58:00,SystemResetWarning,0829.3,5.00,000.00,028.0,027.0,000.0,036.3,029.8,21.5,0000.0,0002.40,0007.38,0001.83
2023-09-19 23:59:00,SystemResetWarning,0829.3,4.99,000.00,028.1,027.0,000.0,036.3,029.8,21.4,0000.0,0002.38,0007.38,0001.83
